Weather History for Morgantown, WV

Change the Weather History Date:

Wednesday, June 6, 2012

  Actual Average Record
Temperature  
Mean Temperature 63 °F 67 °F  
Max Temperature 74 °F 78 °F 92 °F (1968)
Min Temperature 51 °F 56 °F 44 °F (1991)
Degree Days  
Heating Degree Days 2 2  
Month to date heating degree days 17 13  
Since 1 June heating degree days 17 13  
Since 1 July heating degree days 4143 5166  
Cooling Degree Days 0 4  
Month to date cooling degree days 0 20  
Year to date cooling degree days 177 87  
Since 1 June cooling degree days 0 20  
Growing Degree Days 12 (Base 50)    
Moisture  
Dew Point 49 °F    
Average Humidity 65    
Maximum Humidity 89    
Minimum Humidity 41    
Precipitation  
Precipitation 0.00 in 0.13 in 1.00 in (2002)
Month to date precipitation 0.45 0.82  
Year to date precipitation 13.15 18.01  
Sea Level Pressure  
Sea Level Pressure 29.99 in    
Wind  
Wind Speed 3 mph (East)    
Max Wind Speed 13 mph    
Max Gust Speed 16 mph    
Visibility 10 miles    
Events      
T = Trace of Precipitation, MM = Missing Value Source: NWS Daily Summary

Daily Weather History Graph

Daily Weather History Graph

Search for Another Location

Airport:

Trip Planner

Search our weather history database for the weather conditions in past years. The results will help you decide how hot, cold, wet, or windy it might be!

Date:

Astronomy

Jun. 06, 2012 Rise Set
Actual Time 5:52 AM EDT 8:44 PM EDT
Civil Twilight 5:20 AM EDT 9:17 PM EDT
Nautical Twilight 4:39 AM EDT 9:57 PM EDT
Astronomical Twilight 3:52 AM EDT 10:44 PM EDT
Moon 10:55 PM EDT (6/6) 8:11 AM EDT (6/6)
Length of Visible Light 15h 57m
Length of Day
14h 52m
Waning Gibbous, 93% of the Moon is Illuminated
Jun 6
Waning Gibbous
Jun 11
Last Quarter
Jun 19
New
Jun 26
First Quarter
Jul 3
Full

Hourly Weather History & Observations

Time (EDT) Temp. Dew Point Humidity Pressure Visibility Wind Dir Wind Speed Gust Speed Precip Events Conditions
12:53 AM 57.0 °F 48.9 °F 74% 29.96 in 10.0 mi ENE 4.6 mph - N/A   Overcast
1:53 AM 57.0 °F 48.0 °F 72% 29.96 in 10.0 mi Calm Calm - N/A   Overcast
2:53 AM 57.2 °F 46.4 °F 67% 29.96 in 10.0 mi NNE 3.5 mph - N/A   Partly Cloudy
3:53 AM 55.9 °F 48.0 °F 75% 29.95 in 10.0 mi Calm Calm - N/A   Overcast
4:53 AM 54.0 °F 48.0 °F 80% 29.96 in 10.0 mi Calm Calm - N/A   Overcast
5:53 AM 52.0 °F 48.0 °F 86% 29.98 in 10.0 mi Calm Calm - N/A   Scattered Clouds
6:53 AM 53.1 °F 48.9 °F 86% 29.99 in 10.0 mi Calm Calm - N/A   Clear
7:53 AM 57.9 °F 48.9 °F 72% 29.99 in 10.0 mi Calm Calm - N/A   Clear
8:53 AM 61.0 °F 48.9 °F 64% 30.01 in 10.0 mi Variable 3.5 mph - N/A   Clear
9:53 AM 64.0 °F 48.9 °F 58% 30.01 in 10.0 mi Variable 5.8 mph - N/A   Clear
10:53 AM 64.9 °F 48.0 °F 54% 30.01 in 10.0 mi Variable 3.5 mph - N/A   Scattered Clouds
11:53 AM 66.0 °F 48.0 °F 52% 30.01 in 10.0 mi ENE 3.5 mph - N/A   Partly Cloudy
12:53 PM 68.0 °F 48.9 °F 50% 30.00 in 10.0 mi NE 4.6 mph - N/A   Mostly Cloudy
1:53 PM 68.0 °F 46.9 °F 47% 29.99 in 10.0 mi Variable 4.6 mph - N/A   Overcast
2:53 PM 70.0 °F 46.0 °F 42% 29.98 in 10.0 mi Variable 6.9 mph - N/A   Mostly Cloudy
3:53 PM 66.9 °F 50.0 °F 54% 29.98 in 10.0 mi SSE 11.5 mph - N/A   Scattered Clouds
4:53 PM 73.0 °F 48.9 °F 42% 29.96 in 10.0 mi Variable 3.5 mph - N/A   Scattered Clouds
5:53 PM 69.8 °F 48.2 °F 46% 29.97 in 10.0 mi ESE 3.5 mph - N/A   Overcast
6:53 PM 68.0 °F 46.9 °F 47% 29.97 in 10.0 mi SE 4.6 mph - N/A   Clear
7:53 PM 68.0 °F 48.2 °F 49% 30.00 in 10.0 mi South 3.5 mph - N/A   Overcast
8:53 PM 66.0 °F 50.0 °F 56% 30.00 in 10.0 mi Calm Calm - N/A   Mostly Cloudy
9:53 PM 60.1 °F 52.0 °F 75% 30.02 in 10.0 mi Calm Calm - N/A   Clear
10:53 PM 60.1 °F 52.0 °F 75% 30.04 in 10.0 mi Calm Calm - N/A   Overcast
11:53 PM 55.9 °F 51.1 °F 84% 30.04 in 10.0 mi North 3.5 mph - N/A   Clear